Miscellaneous Local Product
Issued by NWS Hastings, NE

Home | Current Version | Previous Version | Graphics & Text | Print | Product List | Glossary On
Versions: 1 2 3 4 5 6 7 8 9 10 11 12 13 14 15 16 17 18 19 20 21 22 23 24 25 26 27 28 29 30 31 32 33 34 35 36 37 38 39 40 41 42 43 44 45 46 47 48 49 50
000
AXUS43 KGID 030102
MISGRI

GID CWA HOURLY WEATHER ROUNDUP
NATIONAL WEATHER SERVICE HASTINGS NE
800 PM CDT SUN AUG 02 2015

NOTE: "FAIR" INDICATES FEW OR NO CLOUDS BELOW 12,000 FEET WITH NO
SIGNIFICANT WEATHER AND/OR OBSTRUCTIONS TO VISIBILITY.

...SOUTH CENTRAL NEBRASKA...

CITY           SKY/WX    TMP DP  RH WIND       PRES   REMARKS
GRAND ISLAND   CLOUDY    81  61  50 N7        29.86F
HASTINGS       CLOUDY    82  53  36 W8        29.87S
KEARNEY        CLOUDY    81  54  39 SW3       29.88F
ORD            MOCLDY    80  60  50 W5        29.89S
YORK           CLOUDY    82  77  83 CALM      29.84F HX  91
AURORA         CLOUDY    81  67  62 N8        29.87R
LEXINGTON      CLOUDY    80  56  43 SE7       29.90F
HOLDREGE       CLOUDY    81  47  30 E12       29.90F
HEBRON         CLOUDY    85  73  67 S5        29.83F HX  91

...NEBRASKA PANHANDLE...

CITY           SKY/WX    TMP DP  RH WIND       PRES   REMARKS
CHADRON        MOSUNNY   85  57  38 NE14      29.93S
ALLIANCE       PTSUNNY   81  58  45 E8        29.94F
SCOTTSBLUFF    MOSUNNY   86  52  30 SE5       29.96S
SIDNEY         MOSUNNY   86  48  26 SE5       30.00F

...WESTERN AND NORTH CENTRAL NEBRASKA...

CITY           SKY/WX    TMP DP  RH WIND       PRES   REMARKS
VALENTINE      NOT AVBL
AINSWORTH      CLEAR     82  65  56 E8        29.94R
ONEILL         CLEAR     83  65  55 NE9       29.90S
BROKEN BOW     CLEAR     81  56  42 S3        29.90F
IMPERIAL       PTSUNNY   83  54  36 E10       29.94S
NORTH PLATTE   MOCLDY    76  61  59 SE13      29.91R
MCCOOK         CLOUDY    83  56  39 S15G22    29.92F

...EASTERN NEBRASKA...

CITY           SKY/WX    TMP DP  RH WIND       PRES   REMARKS
NORFOLK        CLEAR     84  66  54 NE12      29.85R
TEKAMAH        CLEAR     84  74  71 N8        29.81R HX  91
COLUMBUS       MOCLDY    82  70  65 E5        29.83F
ALBION         MOCLDY    84  66  54 NE3       29.87R
OMAHA EPPLEY   MOCLDY    87  76  69 N7        29.80R HX  97
MILLARD        MOCLDY    89  75  64 CALM      29.79S HX  99
LINCOLN        CLOUDY    88  74  63 W15       29.79F HX  96
NEBRASKA CITY  CLOUDY    82  72  72 SW7       29.81R
BEATRICE       CLOUDY    88  74  62 S3        29.82S HX  96
FALLS CITY     MOCLDY    85  75  72 S6        29.81R HX  93

...NORTHERN KANSAS...

CITY           SKY/WX    TMP DP  RH WIND       PRES   REMARKS
GOODLAND       MOCLDY    87  53  31 SE7       29.95R
HILL CITY      MOCLDY    89  65  44 NE6       29.90R HX  91
NORTON         CLEAR     82  46  28 NE7       29.91R
PHILLIPSBURG   RAIN      86  57  37 W15       29.89R
SMITH CENTER   CLEAR     86  57  37 NW10      29.87S
HAYS           CLEAR     91  64  40 S8        29.88R HX  93
RUSSELL        CLEAR     90  65  43 S8        29.86R HX  92
CONCORDIA      MOCLDY    85  68  56 S8        29.84R
SALINA         CLEAR     89  69  51 S9        29.85R HX  93
TOPEKA         MOCLDY    89  71  55 S5        29.84R HX  95



USA.gov is the U.S. government's official web portal to all federal, state and local government web resources and services.